Location: Champignolles
(47.0543°N, 4.5663°E)
Time: 18:10:20
(UTC+00:00)

Cosmos 389 Rocket - Visible Passes

Search period start: 16 April 2021 00:00
Search period end: 26 April 2021 00:00
Orbit: 441 x 472 km, 81.1° (Epoch: 15 April)

Date Brightness Start Highest point End Pass type
(mag) Time Alt. Az. Time Alt. Az. Time Alt. Az.
16 Apr 4.6 19:34:31 12° E 19:34:31 12° E 19:35:41 10° ENE visible
16 Apr 3.3 21:08:15 46° W 21:08:34 48° WNW 21:12:01 10° N visible
17 Apr 2.3 20:34:19 50° S 20:35:08 81° E 20:38:43 10° NNE visible
18 Apr 3.0 20:00:15 24° SSE 20:01:49 38° E 20:05:09 10° NNE visible
18 Apr 5.4 21:34:30 10° WSW 21:36:40 15° WNW 21:38:51 10° NNW visible
19 Apr 3.9 19:26:01 10° SE 19:28:35 20° E 19:31:14 10° NE visible
19 Apr 4.5 21:00:00 10° SW 21:03:03 27° WNW 21:06:11 10° N visible
20 Apr 3.2 20:26:06 10° SSW 20:29:33 54° WNW 20:33:04 10° N visible
21 Apr 2.4 19:52:38 10° S 19:56:08 71° E 19:59:42 10° NNE visible
22 Apr 3.2 19:19:36 10° SSE 19:22:49 34° E 19:26:05 10° NNE visible
22 Apr 5.5 20:55:12 10° WSW 20:57:35 17° WNW 21:00:02 10° NNW visible
23 Apr 4.5 20:20:50 10° SW 20:24:00 31° WNW 20:27:14 10° N visible
24 Apr 3.0 19:46:59 10° SSW 19:50:30 62° WNW 19:54:04 10° N visible
25 Apr 2.5 19:13:35 10° S 19:17:06 62° E 19:20:39 10° NNE visible
25 Apr 6.1 20:51:23 10° WNW 20:52:12 11° WNW 20:53:00 10° NW visible
